Date String (YYYY-MM-DD hh:mm:ss) UTC,Instrument flags,Ambient pressure (hPa),Sample flow (lpm),Bypass flow (lpm),Sample temperature (°C),Ambient temperature (°C),ASC tube jacket temperature (°C),LED temperature (°C),Box temperature (°C),Sample RH (%),Span deviation,Mass concentration (μg/m³),Mass concentration (μg/m³),Mass concentration (μg/m³)
DateTimeUTC,F1_M11,P_M11,Q1_M11,Q2_M11,T1_M11,T2_M11,T3_M11,T4_M11,T5_M11,U1_M11,ZSPAN_M11,X0_M11,X2_M11,X1_M11
2022-06-23 00:00:00,,0829.2,5.00,0.00,29.1,28.2,00.0,37.8,31.1,17.4,0000.0,0017.08,0005.13,0003.57
2022-06-23 00:01:00,,0829.2,5.00,0.00,29.1,28.3,00.0,37.8,31.2,17.0,0000.0,0017.10,0005.09,0003.55
2022-06-23 00:02:00,,0829.1,4.99,0.00,29.2,28.1,00.0,37.8,31.1,17.2,0000.0,0016.36,0005.07,0003.53
2022-06-23 00:03:00,,0829.1,5.00,0.00,29.1,27.3,00.0,37.8,30.9,17.3,0000.0,0017.12,0005.07,0003.51
2022-06-23 00:04:00,,0829.1,5.00,0.00,29.0,26.9,00.0,37.7,30.8,17.2,0000.0,0017.88,0005.00,0003.48
2022-06-23 00:05:00,,0829.1,5.01,0.00,29.0,26.9,00.0,37.7,30.8,16.6,0000.0,0017.96,0005.00,0003.47
2022-06-23 00:06:00,,0829.1,5.00,0.00,29.0,27.0,00.0,37.7,30.8,16.6,0000.0,0017.97,0005.08,0003.46
2022-06-23 00:07:00,,0829.0,5.00,0.00,29.0,27.2,00.0,37.7,30.8,17.0,0000.0,0018.52,0005.06,0003.45
2022-06-23 00:08:00,,0829.0,5.00,0.00,29.0,27.4,00.0,37.7,30.9,17.0,0000.0,0019.16,0005.06,0003.44
2022-06-23 00:09:00,,0828.9,4.99,0.00,29.0,27.5,00.0,37.7,30.9,16.9,0000.0,0018.87,0005.03,0003.42
2022-06-23 00:10:00,,0828.9,4.99,0.00,29.0,27.7,00.0,37.7,31.0,16.8,0000.0,0018.67,0004.98,0003.41
2022-06-23 00:11:00,,0828.9,5.01,0.00,29.0,27.9,00.0,37.8,31.0,16.8,0000.0,0017.84,0004.97,0003.40
2022-06-23 00:12:00,,0828.9,4.99,0.00,29.1,28.0,00.0,37.8,31.1,16.5,0000.0,0018.18,0005.00,0003.40
2022-06-23 00:13:00,,0828.9,5.01,0.00,29.1,28.2,00.0,37.8,31.1,16.3,0000.0,0018.53,0004.96,0003.39
2022-06-23 00:14:00,,0828.8,5.01,0.00,29.1,28.3,00.0,37.8,31.2,16.0,0000.0,0017.97,0004.93,0003.39
2022-06-23 00:15:00,,0828.9,5.00,0.00,29.2,28.3,00.0,37.8,31.2,15.3,0000.0,0017.22,0004.90,0003.38
2022-06-23 00:16:00,,0828.8,5.00,0.00,29.1,27.6,00.0,37.8,31.0,14.9,0000.0,0016.93,0004.86,0003.37
2022-06-23 00:17:00,,0828.9,5.00,0.00,29.1,26.9,00.0,37.7,30.8,15.1,0000.0,0016.57,0004.78,0003.36
2022-06-23 00:18:00,,0828.8,5.01,0.00,29.0,26.9,00.0,37.7,30.8,15.3,0000.0,0015.44,0004.72,0003.34
2022-06-23 00:19:00,,0828.8,4.99,0.00,29.0,26.9,00.0,37.7,30.8,15.5,0000.0,0014.75,0004.69,0003.33
2022-06-23 00:20:00,,0829.0,4.99,0.00,29.0,27.1,00.0,37.7,30.8,15.5,0000.0,0014.62,0004.68,0003.31
2022-06-23 00:21:00,,0828.9,5.00,0.00,29.0,27.3,00.0,37.7,30.8,15.4,0000.0,0014.42,0004.70,0003.30
2022-06-23 00:22:00,,0829.2,5.01,0.00,29.0,27.5,00.0,37.7,30.9,15.9,0000.0,0013.93,0004.70,0003.29
2022-06-23 00:23:00,,0829.1,4.99,0.00,29.0,27.7,00.0,37.7,31.0,16.2,0000.0,0014.08,0004.65,0003.27
2022-06-23 00:24:00,,0829.2,4.99,0.00,29.0,27.8,00.0,37.8,31.0,16.1,0000.0,0013.64,0004.65,0003.26
2022-06-23 00:25:00,,0829.3,5.01,0.00,29.1,28.0,00.0,37.8,31.1,16.0,0000.0,0013.76,0004.70,0003.26
2022-06-23 00:26:00,,0829.3,5.01,0.00,29.1,28.1,00.0,37.8,31.1,15.7,0000.0,0013.58,0004.78,0003.27
2022-06-23 00:27:00,,0829.3,5.00,0.00,29.1,28.3,00.0,37.8,31.2,15.9,0000.0,0013.30,0004.80,0003.28
2022-06-23 00:28:00,,0829.3,4.99,0.00,29.2,28.2,00.0,37.8,31.1,16.1,0000.0,0013.91,0004.86,0003.28
2022-06-23 00:29:00,,0829.1,5.01,0.00,29.1,27.4,00.0,37.8,31.0,16.4,0000.0,0014.54,0004.89,0003.29
2022-06-23 00:30:00,,0828.8,5.00,0.00,29.1,27.0,00.0,37.7,30.8,16.8,0000.0,0014.78,0004.88,0003.29
2022-06-23 00:31:00,,0828.7,5.00,0.00,29.0,26.9,00.0,37.7,30.8,16.6,0000.0,0015.27,0004.88,0003.31
2022-06-23 00:32:00,,0828.7,5.00,0.00,29.0,27.0,00.0,37.7,30.8,17.0,0000.0,0015.92,0004.89,0003.32
2022-06-23 00:33:00,,0828.7,5.00,0.00,29.0,27.2,00.0,37.7,30.8,17.3,0000.0,0015.69,0004.89,0003.34
2022-06-23 00:34:00,,0828.7,4.99,0.00,29.0,27.3,00.0,37.7,30.9,17.5,0000.0,0016.34,0004.92,0003.37
2022-06-23 00:35:00,,0828.7,5.00,0.00,29.0,27.5,00.0,37.7,30.9,17.7,0000.0,0017.10,0004.96,0003.39
2022-06-23 00:36:00,,0828.7,5.00,0.00,29.0,27.7,00.0,37.7,31.0,17.1,0000.0,0017.24,0004.94,0003.40
2022-06-23 00:37:00,,0828.7,5.01,0.00,29.0,27.9,00.0,37.8,31.0,17.3,0000.0,0017.05,0004.92,0003.41
2022-06-23 00:38:00,,0828.7,4.99,0.00,29.1,28.0,00.0,37.8,31.1,17.4,0000.0,0017.66,0004.97,0003.42
2022-06-23 00:39:00,,0828.7,4.99,0.00,29.1,28.2,00.0,37.8,31.1,17.4,0000.0,0017.21,0005.05,0003.43
2022-06-23 00:40:00,,0828.7,5.01,0.00,29.1,28.3,00.0,37.8,31.2,17.2,0000.0,0017.81,0005.11,0003.45
2022-06-23 00:41:00,,0828.7,5.00,0.00,29.2,28.4,00.0,37.9,31.2,16.4,0000.0,0017.70,0005.15,0003.47
2022-06-23 00:42:00,,0828.8,5.00,0.00,29.2,28.2,00.0,37.9,31.2,16.3,0000.0,0017.37,0005.14,0003.48
2022-06-23 00:43:00,,0829.2,4.99,0.00,29.2,27.4,00.0,37.8,31.0,16.4,0000.0,0017.41,0005.16,0003.50
2022-06-23 00:44:00,,0829.2,5.01,0.00,29.1,26.9,00.0,37.8,30.8,16.6,0000.0,0017.86,0005.20,0003.50
2022-06-23 00:45:00,,0829.2,5.00,0.00,29.0,26.9,00.0,37.8,30.8,17.0,0000.0,0018.33,0005.22,0003.49
2022-06-23 00:46:00,,0829.1,5.00,0.00,29.0,27.0,00.0,37.8,30.8,16.9,0000.0,0017.77,0005.24,0003.48
2022-06-23 00:47:00,,0829.1,5.00,0.00,29.0,27.2,00.0,37.8,30.8,17.2,0000.0,0018.20,0005.24,0003.49
2022-06-23 00:48:00,,0829.0,5.01,0.00,29.0,27.4,00.0,37.8,30.9,17.4,0000.0,0020.56,0005.25,0003.48
2022-06-23 00:49:00,,0828.8,5.00,0.00,29.0,27.6,00.0,37.8,31.0,17.6,0000.0,0020.66,0005.23,0003.47
2022-06-23 00:50:00,,0829.0,5.00,0.00,29.0,27.8,00.0,37.8,31.0,17.5,0000.0,0020.99,0005.18,0003.46
2022-06-23 00:51:00,,0829.0,5.00,0.00,29.1,27.9,00.0,37.8,31.1,17.1,0000.0,0021.35,0005.14,0003.47
2022-06-23 00:52:00,,0829.2,5.00,0.00,29.1,28.1,00.0,37.8,31.1,16.8,0000.0,0021.30,0005.14,0003.46
2022-06-23 00:53:00,,0829.2,5.01,0.00,29.1,28.2,00.0,37.8,31.2,17.3,0000.0,0022.62,0005.19,0003.46
2022-06-23 00:54:00,,0829.2,5.00,0.00,29.2,28.4,00.0,37.9,31.2,17.3,0000.0,0022.07,0005.16,0003.45
2022-06-23 00:55:00,,0828.9,4.99,0.00,29.2,28.3,00.0,37.9,31.2,16.6,0000.0,0022.05,0005.17,0003.45
2022-06-23 00:56:00,,0828.8,5.01,0.00,29.2,27.7,00.0,37.8,31.1,16.6,0000.0,0021.55,0005.19,0003.45
2022-06-23 00:57:00,,0828.8,5.01,0.00,29.1,27.0,00.0,37.8,30.9,16.5,0000.0,0021.00,0005.19,0003.45
2022-06-23 00:58:00,,0828.8,4.99,0.00,29.1,26.9,00.0,37.8,30.8,16.4,0000.0,0021.00,0005.25,0003.45
2022-06-23 00:59:00,,0828.8,5.00,0.00,29.0,27.0,00.0,37.8,30.8,16.6,0000.0,0020.31,0005.21,0003.46
